(340974) = 1999 XF135 = 2007 EW137

Discovered at Anderson Mesa on 2007-03-11 by LONEOS.

Orbit

Orbit type: Main Belt

Note: WebGL enabled browser required.

epoch2023-09-13.0
epoch JD2460200.5
perihelion date2023-04-26.07177
perihelion JD2460060.57177
argument of perihelion (°)5.17135
ascending node (°)109.58295
inclination (°)8.36235
eccentricity0.1647490
perihelion distance (AU)1.8541765
Tisserand w.r.t. Jupiter3.6
ΔV w.r.t. Earth (km/sec)8.8
semimajor axis (AU)2.2199032
mean anomaly (°)41.69732
mean daily motion (°/day)0.29799080
aphelion distance (AU)2.586
period (years)3.31
P-vector [x]-0.41782488
P-vector [y]0.82825672
P-vector [z]0.37338074
Q-vector [x]-0.89813567
Q-vector [y]-0.43853350
Q-vector [z]-0.03225961
absolute magnitude17.5
phase slope0.15
uncertainty0
referenceMPO 779433
observations used407
oppositions11
arc length (days)8439
first opposition used1999
last opposition used2023
residual rms (arc-secs)0.76
perturbers coarse indicatorM-v
perturbers precise indicator003Ek
first observation date used1999-12-06.0
last observation date used2023-01-13.0
computer nameMPCLINUX
JD of orbit computation2456877.721672
perihelion JD uncertainty (days)5.8163E-05
argument of perihelion uncertainty (°)3.8588E-05
ascending node uncertainty (°)3.4330E-05
inclination uncertainty (°)3.9349E-06
eccentricity uncertainty 3.2713E-08
perihelion distance uncertainty (AU)7.1800E-08
Minimum Orbit Intersection Distances (in AU)
for orbit epoch: 2460200.5, reference: E2023-TP1
Mercury1.53156
Venus1.13583
Earth0.86943
Mars0.21669
Jupiter2.51266
Saturn7.13368
Uranus16.4437
Neptune27.5349

Observations

427 total observations over interval: 1999 12 06.29124 – 2023 01 13.178292
These data are available for download (format description).

Date (UT) J2000 RA J2000 Dec Magn Location Ref
1999 12 06.29124 05 44 16.86 +14 46 56.0 18.1   704 – Lincoln Laboratory ETS, New Mexico MPS 8086
1999 12 06.30551 05 44 15.89 +14 47 00.0 18.6   704 – Lincoln Laboratory ETS, New Mexico MPS 8086
1999 12 06.31977 05 44 15.05 +14 47 02.5 18.9   704 – Lincoln Laboratory ETS, New Mexico MPS 8086
1999 12 06.33403 05 44 14.14 +14 47 06.6 18.7   704 – Lincoln Laboratory ETS, New Mexico MPS 8086
1999 12 06.34831 05 44 13.27 +14 47 09.6 18.5   704 – Lincoln Laboratory ETS, New Mexico MPS 8086
1999 12 14.22134 05 35 51.82 +15 25 17.0 18.5   704 – Lincoln Laboratory ETS, New Mexico MPS 8086
1999 12 14.23577 05 35 50.82 +15 25 22.0 19.1   704 – Lincoln Laboratory ETS, New Mexico MPS 8087
1999 12 14.25026 05 35 49.74 +15 25 25.7 19.0   704 – Lincoln Laboratory ETS, New Mexico MPS 8087
1999 12 14.26476 05 35 48.70 +15 25 29.7 19.1   704 – Lincoln Laboratory ETS, New Mexico MPS 8087
2000 01 05.17406 05 13 12.67 +17 47 56.4 19.4   704 – Lincoln Laboratory ETS, New Mexico MPS 213878
2000 01 05.18858 05 13 12.04 +17 48 04.0 19.4   704 – Lincoln Laboratory ETS, New Mexico MPS 213878
2000 01 05.20308 05 13 11.20 +17 48 09.5 18.8   704 – Lincoln Laboratory ETS, New Mexico MPS 213878
2000 01 05.21760 05 13 10.46 +17 48 15.4 19.4   704 – Lincoln Laboratory ETS, New Mexico MPS 213878
2002 09 05.399580 02 03 47.027 -01 11 24.61 20.97 V 645 – Apache Point-Sloan Digital Sky Survey MPS 206275
2002 09 05.403052 02 03 47.016 -01 11 25.87 21.77   645 – Apache Point-Sloan Digital Sky Survey MPS 206275
2006 11 21.52158 11 01 12.18 +09 44 51.3 21.5 V G96 – Mt. Lemmon Survey MPS 206275
2006 11 21.52334 11 01 12.36 +09 44 50.6 21.6 V G96 – Mt. Lemmon Survey MPS 206275
2006 11 21.52510 11 01 12.57 +09 44 50.0 21.4 V G96 – Mt. Lemmon Survey MPS 206275
2006 11 21.52686 11 01 12.75 +09 44 49.1 21.3 V G96 – Mt. Lemmon Survey MPS 206275
2007 03 11.35767 12 21 43.88 +13 53 49.4 19.3 R 699 – Lowell Observatory-LONEOS MPS 204765
2007 03 11.38163 12 21 42.57 +13 54 03.1   699 – Lowell Observatory-LONEOS MPS 204765
2007 03 11.40555 12 21 41.30 +13 54 15.8   699 – Lowell Observatory-LONEOS MPS 204765
2007 03 11.42951 12 21 40.01 +13 54 29.2   699 – Lowell Observatory-LONEOS MPS 204765
2007 03 12.33262 12 20 53.08 +14 03 04.6 19.6 V 703 – Catalina Sky Survey MPS 205611
2007 03 12.34103 12 20 52.76 +14 03 09.0 19.5 V 703 – Catalina Sky Survey MPS 205611
2007 03 12.34943 12 20 52.22 +14 03 13.7 19.8 V 703 – Catalina Sky Survey MPS 205611
2007 03 12.35782 12 20 51.72 +14 03 17.5 19.5 V 703 – Catalina Sky Survey MPS 205611
2007 03 16.28844 12 17 18.85 +14 38 46.8 19.5 V 703 – Catalina Sky Survey MPS 204765
2007 03 16.29487 12 17 18.45 +14 38 50.4 19.5 V 703 – Catalina Sky Survey MPS 204765
2007 03 16.30132 12 17 18.09 +14 38 53.6 19.5 V 703 – Catalina Sky Survey MPS 204765
2007 03 16.30775 12 17 17.73 +14 38 56.3 19.4 V 703 – Catalina Sky Survey MPS 204765
2009 12 17.29701 07 09 11.06 +18 14 20.4 19.1   704 – Lincoln Laboratory ETS, New Mexico MPS 307339
2009 12 17.29728 07 09 11.06 +18 14 21.7 19.1   704 – Lincoln Laboratory ETS, New Mexico MPS 307339
2009 12 17.30935 07 09 10.46 +18 14 26.0 19.5   704 – Lincoln Laboratory ETS, New Mexico MPS 307339
2009 12 17.30962 07 09 10.46 +18 14 27.1 19.7   704 – Lincoln Laboratory ETS, New Mexico MPS 307339
2009 12 17.32182 07 09 09.90 +18 14 31.2 19.5   704 – Lincoln Laboratory ETS, New Mexico MPS 307339
2009 12 17.32209 07 09 09.91 +18 14 32.8 19.4   704 – Lincoln Laboratory ETS, New Mexico MPS 307339
2009 12 17.33413 07 09 09.21 +18 14 36.8 19.4   704 – Lincoln Laboratory ETS, New Mexico MPS 307339
2009 12 17.33440 07 09 09.29 +18 14 37.8 19.3   704 – Lincoln Laboratory ETS, New Mexico MPS 307339
2009 12 17.34642 07 09 08.68 +18 14 44.0 19.3   704 – Lincoln Laboratory ETS, New Mexico MPS 307339
2009 12 17.34669 07 09 08.62 +18 14 44.3 19.5   704 – Lincoln Laboratory ETS, New Mexico MPS 307339
2009 12 19.28182 07 07 37.63 +18 29 20.2 19.4 V 691 – Steward Observatory, Kitt Peak-Spacewatch MPS 308689
2009 12 19.29950 07 07 36.70 +18 29 28.5 19.3 V 691 – Steward Observatory, Kitt Peak-Spacewatch MPS 308689
2009 12 19.31717 07 07 35.78 +18 29 36.7 19.4 V 691 – Steward Observatory, Kitt Peak-Spacewatch MPS 308689
2010 01 07.27165 06 48 40.87 +21 14 13.7 19.2   704 – Lincoln Laboratory ETS, New Mexico MPS 309467
2010 01 07.29717 06 48 39.08 +21 14 28.1 18.7   704 – Lincoln Laboratory ETS, New Mexico MPS 309467
2010 01 07.30991 06 48 38.22 +21 14 34.5 18.9   704 – Lincoln Laboratory ETS, New Mexico MPS 309467
2012 10 06.516991 02 47 12.373 +00 41 08.48 20.2 r F51 – Pan-STARRS 1, Haleakala MPS 434144
2012 10 06.529673 02 47 11.908 +00 41 03.65 20.0 r F51 – Pan-STARRS 1, Haleakala MPS 434144
2012 10 06.570118 02 47 10.376 +00 40 48.01 19.9 i F51 – Pan-STARRS 1, Haleakala MPS 434144
2012 10 06.583602 02 47 09.868 +00 40 42.82 19.9 i F51 – Pan-STARRS 1, Haleakala MPS 434144
2012 10 14.472164 02 41 38.161 -00 09 27.42 20.3 g F51 – Pan-STARRS 1, Haleakala MPS 435137
2012 10 14.485209 02 41 37.496 -00 09 32.26 20.4 g F51 – Pan-STARRS 1, Haleakala MPS 435137
2012 11 02.432023 02 23 10.049 -01 44 24.83 19.6 i F51 – Pan-STARRS 1, Haleakala MPS 441629
2012 11 02.445002 02 23 09.182 -01 44 27.31 19.4 i F51 – Pan-STARRS 1, Haleakala MPS 441629
2012 11 16.33630 02 09 19.424 -02 04 38.83 19.9 w F51 – Pan-STARRS 1, Haleakala MPS 447699
2012 11 16.36399 02 09 17.857 -02 04 38.04 20.0 w F51 – Pan-STARRS 1, Haleakala MPS 447699
2012 11 16.37782 02 09 17.080 -02 04 37.62 19.9 w F51 – Pan-STARRS 1, Haleakala MPS 447699
2014 05 05.45387 16 15 36.153 -09 32 48.90 20.4 w F51 – Pan-STARRS 1, Haleakala MPS 515160
2014 05 05.46674 16 15 35.397 -09 32 47.31 20.3 w F51 – Pan-STARRS 1, Haleakala MPS 515160
2014 05 05.47959 16 15 34.634 -09 32 46.01 20.3 w F51 – Pan-STARRS 1, Haleakala MPS 515160
2014 05 05.49249 16 15 33.877 -09 32 44.31 20.3 w F51 – Pan-STARRS 1, Haleakala MPS 515160
2014 05 06.32647 16 14 46.27 -09 31 03.1   691 – Steward Observatory, Kitt Peak-Spacewatch MPS 515160
2014 05 06.34420 16 14 45.23 -09 31 01.2   691 – Steward Observatory, Kitt Peak-Spacewatch MPS 515160
2014 05 06.36193 16 14 44.14 -09 30 59.2   691 – Steward Observatory, Kitt Peak-Spacewatch MPS 515160
2014 05 07.49501 16 13 38.064 -09 28 45.30 20.5 w F51 – Pan-STARRS 1, Haleakala MPS 515160
2014 05 07.50767 16 13 37.290 -09 28 43.81 20.5 w F51 – Pan-STARRS 1, Haleakala MPS 515160
2014 05 07.52035 16 13 36.515 -09 28 42.33 20.6 w F51 – Pan-STARRS 1, Haleakala MPS 515160
2014 05 22.42197 15 57 48.063 -09 10 12.36 20.2 w F51 – Pan-STARRS 1, Haleakala MPS 516350
2014 05 22.43543 15 57 47.148 -09 10 12.03 20.4 w F51 – Pan-STARRS 1, Haleakala MPS 516350
2014 05 24.37370 15 55 40.424 -09 09 31.49 20.3 w F51 – Pan-STARRS 1, Haleakala MPS 517794
2014 05 24.38632 15 55 39.571 -09 09 31.30 20.5 w F51 – Pan-STARRS 1, Haleakala MPS 517794
2014 05 24.44039 15 55 35.906 -09 09 30.58 20.4 w F51 – Pan-STARRS 1, Haleakala MPS 517794
2014 06 03.43044 15 45 11.624 -09 13 34.80 20.6 w F51 – Pan-STARRS 1, Haleakala MPS 518771
2014 06 03.44314 15 45 10.848 -09 13 35.63 20.5 w F51 – Pan-STARRS 1, Haleakala MPS 518771
2014 06 03.45580 15 45 10.081 -09 13 36.43 20.6 w F51 – Pan-STARRS 1, Haleakala MPS 518771
2014 06 21.34732 15 31 11.826 -09 53 16.62 20.9 w F51 – Pan-STARRS 1, Haleakala MPS 521235
2014 06 21.38522 15 31 10.479 -09 53 24.17 21.0 w F51 – Pan-STARRS 1, Haleakala MPS 521235
2014 07 26.26655 15 29 08.666 -12 45 28.66 21.8 w F51 – Pan-STARRS 1, Haleakala MPS 525386
2014 07 26.27855 15 29 08.947 -12 45 32.95 21.9 w F51 – Pan-STARRS 1, Haleakala MPS 525386
2014 07 26.29051 15 29 09.223 -12 45 37.49 21.9 w F51 – Pan-STARRS 1, Haleakala MPS 525386
2014 07 26.30246 15 29 09.484 -12 45 41.62 21.8 w F51 – Pan-STARRS 1, Haleakala MPS 525386
2015 07 19.55845 23 58 55.413 -09 05 26.88 21.4 w F51 – Pan-STARRS 1, Haleakala MPS 617479
2015 07 19.56966 23 58 55.610 -09 05 29.49 21.1 w F51 – Pan-STARRS 1, Haleakala MPS 617479
2015 07 19.58098 23 58 55.779 -09 05 31.67 21.7 w F51 – Pan-STARRS 1, Haleakala MPS 617479
2015 08 14.49708 23 58 01.357 -11 39 31.58 20.8 w F51 – Pan-STARRS 1, Haleakala MPS 623168
2015 08 14.50933 23 58 01.041 -11 39 37.54 20.7 w F51 – Pan-STARRS 1, Haleakala MPS 623168
